RES55 EGHC-LFOE

Flight info

Callsign RES55
Flight time N/A
Altitude 11000
Route EGHC/16 DCT LIZAD N160 EVRUK DCT LFOE
Aircraft A139/L-SDG/C

Departure

Time N/A
Airport Land's End Airport (EGHC)

Arrival

Time 2026-04-17 09:47
Airport Évreux-Fauville (BA 105) Air Base (LFOE)
Time Latitude Longitude Altitude Speed Heading
2026-04-17 08:46 49.31712 -2.61135 11160 ft 169 kts 116°
2026-04-17 08:46 49.31424 -2.59413 11168 ft 169 kts 116°
2026-04-17 08:47 49.31133 -2.57668 11166 ft 169 kts 116°
2026-04-17 08:47 49.30837 -2.55904 11168 ft 169 kts 116°
2026-04-17 08:47 49.30546 -2.54159 11173 ft 169 kts 117°
2026-04-17 08:47 49.30253 -2.52417 11175 ft 170 kts 117°
2026-04-17 08:48 49.29959 -2.50673 11182 ft 170 kts 117°
2026-04-17 08:48 49.29661 -2.48902 11191 ft 169 kts 117°
2026-04-17 08:48 49.29370 -2.47179 11195 ft 169 kts 116°
2026-04-17 08:48 49.29077 -2.45438 11186 ft 169 kts 116°
2026-04-17 08:49 49.28781 -2.43688 11180 ft 169 kts 116°
2026-04-17 08:49 49.28486 -2.41942 11170 ft 170 kts 116°
2026-04-17 08:49 49.28192 -2.40210 11167 ft 170 kts 116°
2026-04-17 08:49 49.27892 -2.38436 11166 ft 171 kts 116°
2026-04-17 08:50 49.27594 -2.36671 11180 ft 171 kts 116°
2026-04-17 08:50 49.27298 -2.34923 11197 ft 170 kts 117°
2026-04-17 08:50 49.26999 -2.33158 11196 ft 170 kts 117°
2026-04-17 08:50 49.26702 -2.31421 11194 ft 169 kts 117°
2026-04-17 08:51 49.26406 -2.29682 11184 ft 169 kts 117°
2026-04-17 08:51 49.26110 -2.27950 11176 ft 169 kts 117°
2026-04-17 08:51 49.25810 -2.26192 11174 ft 169 kts 117°
2026-04-17 08:51 49.25513 -2.24458 11179 ft 169 kts 117°
2026-04-17 08:52 49.25214 -2.22707 11177 ft 169 kts 117°
2026-04-17 08:52 49.24915 -2.20959 11178 ft 169 kts 117°
2026-04-17 08:52 49.24614 -2.19208 11179 ft 169 kts 117°
2026-04-17 08:52 49.24318 -2.17482 11185 ft 170 kts 117°
2026-04-17 08:53 49.24012 -2.15704 11192 ft 169 kts 117°
2026-04-17 08:53 49.23713 -2.13953 11182 ft 170 kts 117°
2026-04-17 08:53 49.23413 -2.12207 11180 ft 171 kts 117°
2026-04-17 08:53 49.23109 -2.10436 11186 ft 171 kts 117°
2026-04-17 08:54 49.22808 -2.08681 11195 ft 171 kts 117°
2026-04-17 08:54 49.22504 -2.06926 11204 ft 170 kts 117°
2026-04-17 08:54 49.22201 -2.05165 11208 ft 170 kts 117°
2026-04-17 08:54 49.22083 -2.03349 11214 ft 173 kts 104°
2026-04-17 08:55 49.22033 -2.01516 11237 ft 172 kts 103°
2026-04-17 08:55 49.21987 -1.99695 11207 ft 172 kts 103°
2026-04-17 08:55 49.21941 -1.97853 11184 ft 173 kts 103°
2026-04-17 08:55 49.21895 -1.96025 11194 ft 173 kts 103°
2026-04-17 08:56 49.21849 -1.94188 11194 ft 173 kts 103°
2026-04-17 08:56 49.21802 -1.92353 11195 ft 173 kts 103°
2026-04-17 08:56 49.21754 -1.90519 11201 ft 173 kts 103°
2026-04-17 08:56 49.21707 -1.88688 11189 ft 173 kts 103°
2026-04-17 08:57 49.21659 -1.86845 11188 ft 174 kts 103°
2026-04-17 08:57 49.21611 -1.85000 11201 ft 174 kts 103°
2026-04-17 08:57 49.21562 -1.83149 11198 ft 174 kts 103°
2026-04-17 08:57 49.21514 -1.81300 11182 ft 175 kts 103°
2026-04-17 08:58 49.21467 -1.79446 11194 ft 174 kts 103°
2026-04-17 08:58 49.21421 -1.77606 11203 ft 174 kts 103°
2026-04-17 08:58 49.21375 -1.75763 11202 ft 174 kts 103°
2026-04-17 08:58 49.21326 -1.73906 11195 ft 173 kts 103°
2026-04-17 08:59 49.21279 -1.72089 11187 ft 173 kts 103°
2026-04-17 08:59 49.21231 -1.70236 11183 ft 173 kts 103°
2026-04-17 08:59 49.21183 -1.68410 11174 ft 173 kts 103°
2026-04-17 08:59 49.21135 -1.66561 11184 ft 173 kts 103°
2026-04-17 09:00 49.21086 -1.64722 11187 ft 173 kts 103°
2026-04-17 09:00 49.21037 -1.62882 11189 ft 173 kts 103°
2026-04-17 09:00 49.20988 -1.61060 11197 ft 172 kts 102°
2026-04-17 09:00 49.20939 -1.59243 11186 ft 172 kts 102°
2026-04-17 09:01 49.20890 -1.57417 11181 ft 173 kts 102°
2026-04-17 09:01 49.20839 -1.55574 11181 ft 172 kts 102°
2026-04-17 09:01 49.20789 -1.53730 11169 ft 173 kts 102°
2026-04-17 09:01 49.20740 -1.51923 11174 ft 172 kts 102°
2026-04-17 09:02 49.20690 -1.50094 11175 ft 173 kts 102°
2026-04-17 09:02 49.20639 -1.48250 11175 ft 173 kts 102°
2026-04-17 09:02 49.20589 -1.46402 11182 ft 174 kts 103°
2026-04-17 09:02 49.20537 -1.44566 11199 ft 174 kts 103°
2026-04-17 09:03 49.20484 -1.42714 11210 ft 173 kts 103°
2026-04-17 09:03 49.20432 -1.40881 11203 ft 174 kts 103°
2026-04-17 09:03 49.20379 -1.39041 11208 ft 173 kts 103°
2026-04-17 09:03 49.20326 -1.37191 11193 ft 174 kts 103°
2026-04-17 09:04 49.20272 -1.35357 11193 ft 174 kts 103°
2026-04-17 09:04 49.20218 -1.33499 11189 ft 173 kts 104°
2026-04-17 09:04 49.20164 -1.31676 11173 ft 173 kts 104°
2026-04-17 09:04 49.20110 -1.29838 11175 ft 173 kts 104°
2026-04-17 09:05 49.20055 -1.27970 11186 ft 174 kts 104°
2026-04-17 09:05 49.20000 -1.26144 11198 ft 174 kts 104°
2026-04-17 09:05 49.19945 -1.24298 11195 ft 174 kts 103°
2026-04-17 09:05 49.19889 -1.22461 11194 ft 173 kts 104°
2026-04-17 09:06 49.19833 -1.20598 11181 ft 174 kts 104°
2026-04-17 09:06 49.19777 -1.18760 11185 ft 173 kts 104°
2026-04-17 09:06 49.19721 -1.16936 11178 ft 173 kts 103°
2026-04-17 09:06 49.19665 -1.15098 11166 ft 174 kts 103°
2026-04-17 09:07 49.19609 -1.13262 11179 ft 174 kts 103°
2026-04-17 09:07 49.19551 -1.11403 11196 ft 173 kts 103°
2026-04-17 09:07 49.19493 -1.09557 11188 ft 174 kts 103°
2026-04-17 09:07 49.19436 -1.07735 11175 ft 174 kts 103°
2026-04-17 09:08 49.19378 -1.05889 11170 ft 173 kts 103°
2026-04-17 09:08 49.19320 -1.04064 11058 ft 173 kts 102°
2026-04-17 09:08 49.19265 -1.02239 10924 ft 172 kts 102°
2026-04-17 09:08 49.19209 -1.00400 10799 ft 172 kts 102°
2026-04-17 09:09 49.19152 -0.98589 10673 ft 172 kts 102°
2026-04-17 09:09 49.19094 -0.96761 10548 ft 172 kts 102°
2026-04-17 09:09 49.19036 -0.94956 10419 ft 171 kts 101°
2026-04-17 09:09 49.18977 -0.93141 10288 ft 171 kts 101°
2026-04-17 09:10 49.18861 -0.89526 10037 ft 169 kts 102°
2026-04-17 09:10 49.18803 -0.87743 9900 ft 169 kts 102°
2026-04-17 09:10 49.18744 -0.85960 9768 ft 168 kts 102°
2026-04-17 09:11 49.18684 -0.84183 9632 ft 167 kts 102°
2026-04-17 09:11 49.18626 -0.82423 9499 ft 166 kts 102°
2026-04-17 09:11 49.18567 -0.80673 9374 ft 166 kts 102°
2026-04-17 09:11 49.18508 -0.78917 9242 ft 165 kts 102°
2026-04-17 09:12 49.18448 -0.77156 9098 ft 165 kts 102°
2026-04-17 09:12 49.18389 -0.75428 8964 ft 165 kts 102°
2026-04-17 09:12 49.18329 -0.73678 8836 ft 164 kts 102°
2026-04-17 09:12 49.18269 -0.71929 8702 ft 164 kts 102°
2026-04-17 09:13 49.18209 -0.70203 8575 ft 163 kts 102°
2026-04-17 09:13 49.18149 -0.68478 8444 ft 163 kts 102°
2026-04-17 09:13 49.18089 -0.66767 8315 ft 162 kts 102°
2026-04-17 09:13 49.18029 -0.65032 8172 ft 162 kts 102°
2026-04-17 09:14 49.17969 -0.63317 8040 ft 161 kts 102°
2026-04-17 09:14 49.17909 -0.61621 7906 ft 160 kts 102°
2026-04-17 09:14 49.17849 -0.59945 7779 ft 159 kts 103°
2026-04-17 09:14 49.17789 -0.58238 7645 ft 158 kts 103°
2026-04-17 09:15 49.17730 -0.56582 7509 ft 158 kts 103°
2026-04-17 09:15 49.17670 -0.54896 7369 ft 158 kts 103°
2026-04-17 09:15 49.17610 -0.53243 7240 ft 157 kts 103°
2026-04-17 09:15 49.17550 -0.51574 7157 ft 158 kts 104°
2026-04-17 09:16 49.17486 -0.49896 7156 ft 157 kts 105°
2026-04-17 09:16 49.17422 -0.48228 7175 ft 157 kts 105°
2026-04-17 09:16 49.17360 -0.46578 7186 ft 158 kts 105°
2026-04-17 09:16 49.17260 -0.44911 7206 ft 157 kts 109°
2026-04-17 09:17 49.17115 -0.43268 7213 ft 157 kts 109°
2026-04-17 09:17 49.16969 -0.41605 7216 ft 157 kts 109°
2026-04-17 09:17 49.16823 -0.39951 7212 ft 157 kts 109°
2026-04-17 09:17 49.16678 -0.38299 7214 ft 157 kts 109°
2026-04-17 09:18 49.16534 -0.36662 7218 ft 156 kts 109°
2026-04-17 09:18 49.16390 -0.35031 7209 ft 156 kts 109°
2026-04-17 09:18 49.16244 -0.33390 7207 ft 156 kts 110°
2026-04-17 09:18 49.16098 -0.31746 7200 ft 156 kts 110°
2026-04-17 09:19 49.15951 -0.30109 7203 ft 156 kts 110°
2026-04-17 09:19 49.15805 -0.28475 7209 ft 156 kts 110°
2026-04-17 09:19 49.15658 -0.26840 7209 ft 155 kts 110°
2026-04-17 09:19 49.15515 -0.25215 7206 ft 156 kts 109°
2026-04-17 09:20 49.15387 -0.23558 7211 ft 156 kts 109°
2026-04-17 09:20 49.15261 -0.21917 7205 ft 157 kts 109°
2026-04-17 09:20 49.15134 -0.20264 7203 ft 157 kts 109°
2026-04-17 09:20 49.15005 -0.18591 7203 ft 157 kts 109°
2026-04-17 09:21 49.14875 -0.16925 7206 ft 157 kts 109°
2026-04-17 09:21 49.14748 -0.15270 7203 ft 157 kts 109°
2026-04-17 09:21 49.14620 -0.13629 7203 ft 157 kts 108°
2026-04-17 09:21 49.14491 -0.11965 7204 ft 157 kts 109°
2026-04-17 09:22 49.14362 -0.10297 7209 ft 157 kts 109°
2026-04-17 09:22 49.14232 -0.08626 7217 ft 157 kts 108°
2026-04-17 09:22 49.14103 -0.06981 7222 ft 156 kts 108°
2026-04-17 09:22 49.13975 -0.05331 7214 ft 156 kts 108°
2026-04-17 09:23 49.13847 -0.03691 7205 ft 156 kts 108°
2026-04-17 09:23 49.13717 -0.02030 7205 ft 156 kts 108°
2026-04-17 09:23 49.13589 -0.00402 7200 ft 156 kts 108°
2026-04-17 09:23 49.13459 0.01257 7205 ft 156 kts 108°
2026-04-17 09:24 49.13329 0.02900 7204 ft 156 kts 108°
2026-04-17 09:24 49.13199 0.04547 7208 ft 157 kts 108°
2026-04-17 09:24 49.13069 0.06201 7216 ft 156 kts 108°
2026-04-17 09:24 49.12937 0.07865 7214 ft 157 kts 108°
2026-04-17 09:25 49.12806 0.09523 7210 ft 157 kts 108°
2026-04-17 09:25 49.12674 0.11166 7218 ft 157 kts 108°
2026-04-17 09:25 49.12543 0.12819 7215 ft 156 kts 108°
2026-04-17 09:25 49.12411 0.14482 7204 ft 157 kts 108°
2026-04-17 09:26 49.12281 0.16119 7206 ft 156 kts 108°
2026-04-17 09:26 49.12146 0.17784 7211 ft 156 kts 108°
2026-04-17 09:26 49.12014 0.19422 7208 ft 156 kts 108°
2026-04-17 09:26 49.11883 0.21069 7198 ft 157 kts 108°
2026-04-17 09:27 49.11750 0.22718 7213 ft 156 kts 108°
2026-04-17 09:27 49.11617 0.24367 7216 ft 156 kts 108°
2026-04-17 09:27 49.11486 0.25990 7219 ft 155 kts 108°
2026-04-17 09:27 49.11354 0.27631 7224 ft 155 kts 108°
2026-04-17 09:28 49.11218 0.29296 7217 ft 156 kts 108°
2026-04-17 09:28 49.11086 0.30924 7210 ft 156 kts 108°
2026-04-17 09:28 49.10952 0.32571 7204 ft 157 kts 108°
2026-04-17 09:28 49.10817 0.34233 7213 ft 157 kts 108°
2026-04-17 09:29 49.10681 0.35881 7207 ft 157 kts 108°
2026-04-17 09:29 49.10545 0.37537 7215 ft 156 kts 107°
2026-04-17 09:29 49.10411 0.39172 7214 ft 156 kts 107°
2026-04-17 09:29 49.10273 0.40823 7208 ft 157 kts 108°
2026-04-17 09:30 49.10131 0.42490 7212 ft 157 kts 108°
2026-04-17 09:30 49.09992 0.44135 7204 ft 157 kts 108°
2026-04-17 09:30 49.09849 0.45786 7214 ft 156 kts 107°
2026-04-17 09:30 49.09707 0.47441 7208 ft 155 kts 107°
2026-04-17 09:31 49.09567 0.49081 7185 ft 157 kts 108°
2026-04-17 09:31 49.09426 0.50723 7183 ft 156 kts 108°
2026-04-17 09:31 49.09284 0.52351 7205 ft 155 kts 107°
2026-04-17 09:31 49.09143 0.54009 7197 ft 156 kts 108°
2026-04-17 09:32 49.09002 0.55643 7179 ft 156 kts 107°
2026-04-17 09:32 49.08859 0.57282 7186 ft 156 kts 107°
2026-04-17 09:32 49.08716 0.58909 7182 ft 157 kts 107°
2026-04-17 09:32 49.08571 0.60566 7201 ft 156 kts 107°
2026-04-17 09:33 49.08431 0.62198 7217 ft 156 kts 107°
2026-04-17 09:33 49.08290 0.63851 7219 ft 156 kts 107°
2026-04-17 09:33 49.08158 0.65491 7213 ft 157 kts 107°
2026-04-17 09:33 49.08024 0.67125 7208 ft 156 kts 107°
2026-04-17 09:34 49.07851 0.68743 7226 ft 151 kts 120°
2026-04-17 09:34 49.07254 0.70009 7185 ft 148 kts 144°
2026-04-17 09:34 49.06537 0.71147 7180 ft 149 kts 147°
2026-04-17 09:34 49.05817 0.72260 7207 ft 148 kts 146°
2026-04-17 09:35 49.05093 0.73376 7217 ft 147 kts 147°
2026-04-17 09:35 49.04370 0.74484 7220 ft 147 kts 147°
2026-04-17 09:35 49.03656 0.75576 7218 ft 147 kts 147°
2026-04-17 09:35 49.02936 0.76675 7210 ft 146 kts 147°
2026-04-17 09:36 49.02213 0.77774 7101 ft 146 kts 145°
2026-04-17 09:36 49.01495 0.78875 6932 ft 146 kts 145°
2026-04-17 09:36 49.00785 0.79961 6751 ft 146 kts 145°
2026-04-17 09:36 49.00071 0.81048 6567 ft 146 kts 145°
2026-04-17 09:37 48.99350 0.82148 6385 ft 145 kts 145°
2026-04-17 09:37 48.98643 0.83226 6200 ft 145 kts 145°
2026-04-17 09:37 48.97932 0.84305 6018 ft 144 kts 144°
2026-04-17 09:37 48.97233 0.85367 5825 ft 144 kts 145°
2026-04-17 09:38 48.96531 0.86437 5651 ft 142 kts 144°
2026-04-17 09:38 48.95824 0.87507 5451 ft 142 kts 144°
2026-04-17 09:38 48.95126 0.88567 5274 ft 141 kts 144°
2026-04-17 09:38 48.94438 0.89610 5087 ft 141 kts 143°
2026-04-17 09:39 48.93740 0.90667 4896 ft 141 kts 143°
2026-04-17 09:39 48.93043 0.91725 4722 ft 140 kts 143°
2026-04-17 09:39 48.92366 0.92772 4525 ft 142 kts 137°
2026-04-17 09:39 48.91948 0.94138 4353 ft 143 kts 118°
2026-04-17 09:40 48.91600 0.95561 4153 ft 143 kts 117°
2026-04-17 09:40 48.91266 0.96961 3979 ft 142 kts 117°
2026-04-17 09:40 48.90929 0.98375 3790 ft 142 kts 117°
2026-04-17 09:40 48.90596 0.99786 3605 ft 141 kts 117°
2026-04-17 09:41 48.90264 1.01182 3426 ft 139 kts 116°
2026-04-17 09:41 48.89941 1.02552 3244 ft 138 kts 116°
2026-04-17 09:41 48.89646 1.03944 3022 ft 141 kts 102°
2026-04-17 09:41 48.89924 1.05339 2839 ft 141 kts 56°
2026-04-17 09:42 48.90613 1.06357 2707 ft 137 kts 46°
2026-04-17 09:42 48.91327 1.07312 2498 ft 137 kts 45°
2026-04-17 09:42 48.92057 1.08258 2313 ft 137 kts 45°
2026-04-17 09:42 48.92779 1.09185 2130 ft 137 kts 44°
2026-04-17 09:43 48.93520 1.10123 2024 ft 137 kts 45°
2026-04-17 09:43 48.94241 1.11040 2017 ft 137 kts 45°
2026-04-17 09:43 48.94980 1.11977 2046 ft 136 kts 46°
2026-04-17 09:43 48.95677 1.12863 2130 ft 124 kts 45°
2026-04-17 09:44 48.96318 1.13675 1991 ft 118 kts 45°
2026-04-17 09:44 48.96946 1.14465 1794 ft 116 kts 45°
2026-04-17 09:44 48.97557 1.15241 1623 ft 112 kts 45°
2026-04-17 09:44 48.98145 1.15986 1478 ft 106 kts 46°
2026-04-17 09:45 48.98697 1.16685 1328 ft 101 kts 46°
2026-04-17 09:45 48.99218 1.17345 1204 ft 93 kts 47°
2026-04-17 09:45 48.99699 1.17952 1080 ft 85 kts 47°
2026-04-17 09:45 49.00148 1.18523 928 ft 83 kts 48°
2026-04-17 09:46 49.00579 1.19073 799 ft 79 kts 49°
2026-04-17 09:46 49.00992 1.19609 673 ft 77 kts 47°
2026-04-17 09:46 49.01367 1.20158 629 ft 72 kts 31°
2026-04-17 09:46 49.01734 1.20556 516 ft 58 kts 37°
2026-04-17 09:47 49.02017 1.20901 444 ft 46 kts 42°
2026-04-17 09:47 49.02206 1.21130 445 ft 24 kts 34°
2026-04-17 09:47 49.02302 1.21239 446 ft 14 kts 35°
2026-04-17 09:47 49.02351 1.21316 444 ft 5 kts 47°
2026-04-17 09:48 49.02362 1.21331 445 ft 0 kts 40°
2026-04-17 09:48 49.02417 1.21404 456 ft 21 kts 43°
2026-04-17 09:48 49.02568 1.21608 489 ft 23 kts 148°
2026-04-17 09:48 49.02432 1.21854 506 ft 13 kts 18°
2026-04-17 09:49 49.02458 1.21872 442 ft 0 kts 12°
2026-04-17 09:50 49.02438 1.21842 452 ft 9 kts 31°
2026-04-17 09:51 49.02414 1.21812 442 ft 0 kts 32°